Weather History for Piney Island, NC

Change the Weather History Date:

Tuesday, February 19, 2013

  Actual Average (KMRH) Record (KMRH)
Temperature  
Mean Temperature 52 °F -  
Max Temperature 66 °F 58 °F 70 °F (1984)
Min Temperature 39 °F 38 °F 17 °F (1958)
Degree Days  
Heating Degree Days 12    
Growing Degree Days 2 (Base 50)    
Moisture  
Dew Point 47 °F    
Average Humidity 77    
Maximum Humidity 90    
Minimum Humidity 56    
Precipitation  
Precipitation 0.14 in - - ()
Sea Level Pressure  
Sea Level Pressure 30.07 in    
Wind  
Wind Speed 10 mph (SSW)    
Max Wind Speed 22 mph    
Max Gust Speed 38 mph    
Visibility 9 miles    
Events Rain    
Averages and records for this station are not official NWS values.
T = Trace of Precipitation, MM = Missing Value Source: NWS Daily Summary

Daily Weather History Graph

Daily Weather History Graph

Search for Another Location

Airport:

Trip Planner

Search our weather history database for the weather conditions in past years. The results will help you decide how hot, cold, wet, or windy it might be!

Date:

Astronomy

Feb. 19, 2013 Rise Set
Actual Time 6:47 AM EST 5:52 PM EST
Civil Twilight 6:21 AM EST 6:18 PM EST
Nautical Twilight 5:51 AM EST 6:47 PM EST
Astronomical Twilight 5:22 AM EST 7:17 PM EST
Moon 12:29 PM EST (2/19) 2:10 AM EST (2/19)
Length of Visible Light 11h 56m
Length of Day
11h 05m
Waxing Gibbous, 67% of the Moon is Illuminated
Feb 19
Waxing Gibbous
Feb 25
Full
Mar 4
Last Quarter
Mar 11
New
Mar 19
First Quarter

Hourly Weather History & Observations

Time (EST) Temp. Windchill Dew Point Humidity Pressure Visibility Wind Dir Wind Speed Gust Speed Precip Events Conditions
12:56 AM 39.9 °F 36.7 °F 34.0 °F 79% 30.33 in - South 4.6 mph - N/A   Clear
1:56 AM 44.1 °F 40.1 °F 36.0 °F 73% 30.31 in - South 6.9 mph - N/A   Clear
2:56 AM 43.0 °F 38.8 °F 36.0 °F 76% 30.28 in - SSE 6.9 mph - N/A   Clear
3:56 AM 44.1 °F 40.1 °F 37.9 °F 79% 30.26 in - SSE 6.9 mph - N/A   Clear
4:56 AM 43.0 °F 37.7 °F 39.0 °F 86% 30.24 in - SE 9.2 mph - N/A   Clear
5:56 AM 44.1 °F 39.5 °F 39.9 °F 85% 30.22 in - SE 8.1 mph - N/A   Clear
6:56 AM 45.0 °F 40.6 °F 42.1 °F 90% 30.20 in - SE 8.1 mph - N/A   Clear
7:56 AM 50.0 °F - 46.0 °F 86% 30.18 in - SE 5.8 mph - N/A   Clear
8:56 AM 60.1 °F - 48.9 °F 67% 30.18 in - South 4.6 mph - N/A   Clear
9:56 AM 66.0 °F - 50.0 °F 56% 30.15 in 10.0 mi South 13.8 mph 20.7 mph N/A   Partly Cloudy
10:56 AM 62.1 °F - 53.1 °F 72% 30.14 in 10.0 mi SSW 12.7 mph - 0.00 in   Mostly Cloudy
11:56 AM 64.0 °F - 52.0 °F 65% 30.09 in 10.0 mi SSW 18.4 mph 28.8 mph N/A   Mostly Cloudy
12:56 PM 64.9 °F - 53.1 °F 65% 30.04 in 10.0 mi SSW 20.7 mph 28.8 mph N/A   Scattered Clouds
1:56 PM 61.0 °F - 55.0 °F 81% 30.02 in 6.0 mi SSW 17.3 mph 24.2 mph 0.02 in Rain Rain
2:56 PM 57.0 °F - - N/A% 29.99 in 5.0 mi SSW 13.8 mph 25.3 mph 0.12 in Rain Light Rain
3:56 PM 57.0 °F - - N/A% 29.94 in 10.0 mi South 13.8 mph - 0.00 in   Mostly Cloudy
4:56 PM 59.0 °F - - N/A% 29.92 in 10.0 mi SSW 15.0 mph - N/A   Partly Cloudy
5:56 PM 57.9 °F - - N/A% 29.92 in 10.0 mi SW 16.1 mph 25.3 mph N/A   Overcast
7:42 PM 59.0 °F - 51.8 °F 77% 29.90 in 10.0 mi SW 20.7 mph 36.8 mph N/A   Overcast
7:56 PM 59.0 °F - 53.1 °F 81% 29.92 in 10.0 mi SW 21.9 mph 38.0 mph N/A   Overcast
8:16 PM 59.0 °F - 53.6 °F 82% 29.90 in 10.0 mi SW 20.7 mph 32.2 mph N/A   Overcast
8:56 PM 57.9 °F - 53.1 °F 84% 29.91 in 10.0 mi WSW 15.0 mph 24.2 mph N/A   Scattered Clouds
9:56 PM 57.0 °F - 52.0 °F 83% 29.93 in 10.0 mi West 13.8 mph - N/A   Scattered Clouds
10:56 PM 54.0 °F - 45.0 °F 72% 29.94 in 10.0 mi West 13.8 mph - N/A   Partly Cloudy
11:56 PM 51.1 °F - 45.0 °F 80% 29.95 in 10.0 mi West 11.5 mph - N/A   Clear